Theta_e
316 309 307 306 296 294 291 296 299 299 298 305 309 306 307 310 306 301 325 332 337 337 341 343 347 347 344 343 344 344 344 341 341 341 341 340 341 340 339 339 340 341 342 342 339 341 341 340 339
307 310 306 299 293 289 290 293 298 300 309 311 309 309 309 306 319 323 325 334 338 338 341 341 345 347 344 344 343 343 344 344 342 340 340 338 339 339 338 339 337 340 341 341 339 340 340 339 338
309 306 301 296 290 289 290 296 299 304 310 300 307 311 310 312 323 324 329 335 338 338 340 341 345 346 343 343 343 343 343 345 342 339 338 337 337 338 337 337 336 339 338 340 337 338 339 338 337
306 303 299 293 290 291 293 298 300 303 300 308 309 308 313 322 324 329 334 336 336 336 338 342 345 345 343 344 343 343 343 344 343 340 337 338 338 337 337 338 336 336 338 338 337 336 338 337 336
303 299 293 290 289 291 293 301 301 298 298 303 305 306 309 323 331 333 333 334 334 336 337 340 343 344 344 343 343 342 342 342 342 340 337 338 339 337 338 337 336 335 336 336 336 334 335 334 333
300 297 290 288 288 293 297 301 300 297 301 306 309 309 310 326 328 330 332 330 335 336 335 339 337 340 341 341 342 342 341 340 340 340 338 338 338 338 337 335 335 335 334 335 334 333 332 332 332
297 294 290 289 289 294 299 300 298 299 304 303 313 307 312 324 325 330 329 330 333 334 332 334 337 336 335 337 338 340 340 339 339 339 338 339 339 339 338 337 336 335 334 333 333 332 331 331 330
301 297 290 289 290 293 296 298 299 301 297 311 313 306 314 323 327 328 328 330 331 331 330 334 334 335 333 332 331 334 336 337 336 333 331 330 332 333 333 331 335 334 333 332 331 330 330 329 328
302 296 290 292 290 292 295 295 296 299 305 304 310 312 317 324 326 326 325 325 328 330 330 330 334 333 330 329 327 329 331 331 329 326 324 322 322 324 326 329 333 334 333 332 330 329 328 325 324
298 293 294 297 293 293 295 296 297 299 303 305 309 315 323 325 325 322 320 320 322 324 327 328 331 334 330 332 326 326 325 324 323 321 320 321 320 320 321 321 326 328 328 328 329 327 324 320 316
297 295 295 297 295 296 296 294 296 299 299 305 308 315 322 323 322 321 318 318 320 323 325 326 325 332 333 329 323 322 321 320 321 320 320 320 319 317 317 316 316 316 317 315 317 316 316 315 315
295 297 296 297 297 295 295 295 295 298 299 303 312 319 322 321 321 320 318 318 318 320 321 323 324 327 330 329 323 321 320 319 319 320 321 318 317 315 315 315 314 314 315 314 313 314 315 314 314
298 296 299 298 296 296 296 293 293 295 297 309 316 319 320 321 321 322 322 321 319 320 321 321 322 324 325 328 323 322 320 319 319 320 321 319 317 316 315 314 315 314 314 314 313 313 313 313 313
302 302 300 299 296 294 293 291 293 294 305 312 317 316 319 321 321 321 321 322 321 321 322 322 322 324 323 325 323 323 322 322 321 320 321 319 318 316 316 316 315 315 315 314 314 313 312 312 311
303 299 301 299 295 294 293 290 292 292 307 311 313 314 315 319 320 321 323 323 324 323 323 323 324 323 322 322 323 322 322 323 322 322 322 320 319 316 316 315 315 315 315 314 312 312 311 310 311
301 296 293 300 293 294 292 289 293 296 306 308 310 310 312 314 317 321 323 324 325 325 324 324 326 325 323 322 322 323 322 323 323 323 323 322 322 319 316 315 315 315 314 314 312 311 310 309 309
296 292 292 295 293 291 292 289 292 295 304 305 307 308 310 312 313 316 319 324 325 326 326 325 325 324 324 323 323 323 323 323 324 326 327 327 326 323 319 317 316 315 315 316 316 314 311 308 313
290 291 289 293 290 289 288 290 290 290 301 304 305 306 307 310 314 316 317 321 324 326 327 327 327 326 324 323 323 323 323 324 328 327 328 328 327 326 323 318 319 319 318 317 317 315 313 314 311
293 292 291 289 292 288 288 289 293 290 288 294 300 302 304 308 313 315 316 317 318 323 325 326 326 326 324 322 322 322 325 328 328 329 328 328 328 327 325 323 321 320 318 317 318 316 314 312 312
290 287 289 290 290 287 285 288 290 288 289 291 295 295 299 300 299 304 308 310 313 319 323 325 327 326 326 326 325 324 325 328 330 330 329 329 329 329 327 326 324 322 320 318 317 316 314 313 313
290 287 286 288 288 288 285 286 286 289 288 289 290 291 292 296 296 298 300 303 309 313 318 323 326 327 327 328 324 322 325 327 326 327 327 328 328 327 327 326 325 324 322 320 318 317 313 313 313
286 291 289 288 289 284 286 280 284 287 289 288 290 289 291 291 291 294 297 298 300 308 313 320 324 325 326 326 326 325 324 323 324 325 327 325 326 326 324 325 324 323 322 320 318 317 316 315 311
289 291 289 288 285 282 283 279 283 282 285 287 289 291 292 293 291 293 295 297 297 299 301 305 315 320 324 325 326 325 324 325 324 323 318 315 315 317 319 320 320 318 317 315 315 313 312 312 311
292 291 288 285 284 278 284 281 281 282 285 287 292 291 293 292 290 292 293 296 299 301 301 300 299 310 321 324 325 325 325 322 321 319 314 311 309 308 308 309 308 308 308 307 305 302 300 300 299
290 288 280 278 276 277 278 278 285 286 286 289 291 293 293 291 290 291 294 297 298 300 302 301 299 298 309 324 324 325 324 323 321 318 313 307 304 303 302 302 301 300 299 298 296 294 293 293 291
287 288 281 274 274 277 279 278 282 288 288 288 288 289 288 290 292 293 295 297 298 300 302 301 299 299 302 319 323 325 318 322 320 315 311 306 302 299 298 296 295 294 293 291 291 290 289 289 288
283 284 288 280 273 275 279 281 285 287 288 288 288 289 289 290 290 293 294 296 297 298 300 300 300 301 304 309 320 319 319 315 310 306 303 300 297 295 293 292 291 290 290 289 288 287 287 287 286
287 289 282 281 275 272 277 277 281 283 287 290 289 290 292 290 291 293 294 295 295 297 299 299 299 300 302 306 309 309 310 308 304 301 297 296 294 292 290 289 289 288 287 287 287 286 286 285 285
282 283 283 285 281 276 272 279 284 287 289 290 291 289 290 291 292 293 294 294 294 294 295 295 296 295 298 300 299 300 299 299 298 297 295 293 291 289 288 287 287 287 286 286 285 285 285 284 283
284 284 286 282 278 277 278 282 285 287 287 287 288 290 292 292 292 293 293 293 293 294 293 293 292 293 295 296 297 295 295 295 293 292 290 291 288 287 287 286 286 286 285 285 285 284 283 283 283
Wind_Speed
5 3 3 6 6 6 1 2 0 3 1 1 3 4 6 4 3 3 2 3 8 7 6 6 12 13 14 14 12 12 12 15 16 16 14 14 16 16 17 17 15 16 17 18 17 17 17 18 18
3 2 6 3 6 3 4 2 4 4 5 5 5 3 5 2 2 7 5 5 8 8 5 6 12 13 14 12 12 11 11 14 16 16 15 15 16 16 17 16 16 16 17 18 16 17 17 17 17
0 5 5 5 4 4 4 4 5 4 7 1 4 4 3 3 3 8 5 8 8 7 5 6 11 14 14 12 13 12 12 12 16 16 15 15 15 15 15 15 15 15 16 17 17 17 16 16 16
3 6 5 5 3 4 5 4 5 7 3 4 4 6 2 2 6 6 10 9 9 6 5 8 13 14 14 12 12 12 12 14 16 16 14 15 16 15 15 14 13 14 15 16 16 17 16 15 15
5 3 4 2 3 2 3 4 7 6 4 3 1 4 3 3 6 12 11 9 12 6 5 6 12 14 13 13 12 13 13 13 14 15 14 14 12 13 16 15 14 14 13 15 15 15 16 14 14
4 3 4 2 3 3 1 5 6 4 3 3 5 5 2 1 8 8 10 8 10 9 5 6 9 11 13 13 12 12 12 12 12 13 13 13 13 13 14 13 13 13 13 13 13 14 14 14 13
6 4 4 3 2 1 5 7 5 5 5 4 8 5 1 4 4 7 8 9 9 5 6 6 5 7 11 13 12 11 11 10 10 10 9 12 10 11 10 10 12 12 12 12 12 13 13 13 14
4 4 4 2 4 4 5 5 4 4 2 3 3 5 5 8 7 7 8 10 10 4 6 6 4 4 4 7 12 11 11 10 9 9 9 10 10 9 9 8 10 10 10 10 11 12 12 12 12
2 5 2 4 6 3 4 4 2 2 7 0 4 5 3 12 11 8 11 9 7 4 5 5 5 4 3 3 7 9 10 10 9 8 9 7 4 5 6 6 9 9 9 9 9 9 10 10 8
4 5 8 4 5 5 5 5 9 5 4 2 3 4 11 14 13 11 12 13 11 11 9 6 5 6 4 2 4 6 5 5 4 5 5 4 4 4 5 6 7 8 8 8 7 8 9 7 4
4 3 3 3 3 2 5 4 4 8 3 7 10 11 14 16 12 14 6 8 14 10 7 7 5 5 6 4 1 1 3 3 3 4 3 4 4 3 3 3 3 3 6 3 4 4 4 5 4
3 2 6 6 7 0 6 7 5 7 7 6 10 19 17 18 16 12 9 6 10 8 6 6 7 8 6 6 3 2 2 3 3 4 4 3 2 2 2 2 2 2 2 3 3 2 3 4 4
3 3 6 10 7 3 5 3 4 6 4 4 12 14 17 16 14 10 11 7 5 8 7 7 7 7 7 7 3 4 4 3 3 3 4 4 4 3 2 1 1 1 1 2 2 2 3 3 4
2 3 4 7 7 2 2 2 2 3 3 7 13 15 13 16 15 8 9 11 8 7 9 8 8 7 7 7 7 4 4 5 4 3 4 5 4 3 3 2 1 0 1 1 0 1 2 2 2
4 3 9 7 3 3 2 1 7 2 5 9 9 10 9 9 8 13 12 11 13 8 8 11 11 7 7 6 5 4 4 4 4 4 5 5 4 4 3 2 1 2 2 1 0 1 1 3 2
4 2 6 10 5 1 4 8 6 6 9 9 8 7 7 8 10 8 8 8 9 9 9 8 9 9 8 7 6 5 5 4 4 4 4 6 6 5 3 2 3 2 2 1 1 1 2 2 2
3 4 8 7 4 2 3 7 5 6 8 9 8 7 8 7 6 8 8 10 10 11 11 10 9 9 10 7 5 5 6 4 4 4 5 6 5 5 5 4 3 3 2 2 1 0 1 2 3
5 5 4 14 4 4 4 9 5 4 7 11 9 8 7 7 15 8 8 9 9 10 10 11 10 10 9 4 4 3 3 4 4 4 4 6 4 5 4 3 3 3 2 2 1 1 1 2 3
9 6 9 2 4 2 7 9 11 3 2 6 9 9 9 11 8 7 9 8 7 8 10 11 10 9 7 4 4 3 5 5 3 3 6 6 5 5 5 4 4 4 3 3 2 1 0 1 2
2 3 11 4 3 3 2 12 8 5 7 9 11 9 11 7 6 7 8 8 9 11 10 10 12 11 10 7 5 3 4 3 5 5 5 6 6 6 6 6 4 4 3 4 3 3 0 0 2
10 3 4 1 3 1 3 7 6 6 4 5 7 8 6 13 11 9 10 10 8 11 12 12 13 12 11 10 4 2 3 2 2 3 3 5 7 6 3 4 3 4 3 3 3 3 4 1 1
8 6 1 2 4 6 1 8 7 7 10 7 10 9 12 11 9 8 9 9 10 12 7 9 11 12 12 11 10 11 8 7 4 4 4 2 3 4 4 4 4 4 3 3 2 2 2 3 2
4 6 3 4 4 2 6 3 8 2 7 8 11 12 15 15 11 12 12 11 7 7 8 7 6 8 9 12 12 11 9 7 5 4 8 5 5 5 5 5 5 5 4 5 5 4 4 2 2
9 7 7 3 4 8 11 7 7 7 8 6 12 11 14 11 10 9 7 7 6 6 6 7 8 7 8 12 13 14 12 9 6 6 6 5 3 4 5 6 6 6 5 5 5 5 6 5 5
7 12 3 2 4 9 5 3 12 5 8 8 11 14 14 9 9 10 11 11 9 9 8 7 7 7 8 12 12 13 12 10 12 10 8 10 5 3 4 5 5 4 6 6 5 7 6 5 5
13 11 7 8 4 3 1 10 7 10 6 8 8 9 7 10 12 15 15 13 11 10 8 7 8 7 8 11 12 11 7 7 7 9 8 6 5 5 6 7 7 7 7 6 6 5 5 6 5
6 17 5 5 4 3 7 7 9 6 9 7 11 7 13 10 10 11 6 8 7 7 7 8 8 6 7 8 9 8 10 10 9 9 8 7 8 6 7 7 8 7 7 7 7 5 5 5 5
12 13 8 2 5 5 5 6 6 3 10 11 10 13 17 6 6 5 6 7 6 6 5 5 5 7 5 6 6 5 7 10 11 11 12 9 9 8 9 8 7 7 7 7 7 5 5 6 4
4 10 3 5 4 6 0 8 9 12 13 11 10 6 5 6 6 6 5 5 6 4 5 4 5 5 6 5 6 7 6 8 10 10 12 11 10 8 8 8 8 7 7 6 7 6 6 7 6
5 9 12 8 11 1 3 17 5 9 6 5 9 8 7 7 9 8 7 7 7 7 6 6 4 5 4 5 7 7 8 8 9 10 11 12 10 7 9 8 7 7 6 6 6 7 5 6 6
Wind_Direction
333 354 60 49 55 64 194 220 295 110 74 323 70 134 165 96 161 203 106 138 123 114 114 114 108 114 112 109 104 102 99 102 97 95 94 96 93 88 87 83 87 82 90 84 82 76 77 78 74
326 2 39 84 83 64 264 252 188 159 151 138 81 69 50 99 90 124 109 134 115 117 113 120 123 123 117 113 110 105 97 110 99 93 98 95 96 95 90 97 95 93 88 84 81 74 81 77 77
16 40 78 89 110 175 209 200 162 108 146 244 99 55 124 137 111 144 121 127 112 106 116 130 129 121 118 113 110 101 96 108 102 99 96 100 98 96 98 93 92 91 88 84 80 72 76 77 75
32 11 37 85 192 235 205 184 137 129 218 84 131 76 49 232 162 147 129 118 111 105 110 130 130 124 124 120 118 114 104 98 110 105 98 102 98 94 90 92 90 86 83 84 79 73 75 78 72
33 54 64 87 257 254 246 166 144 150 142 106 198 149 64 19 109 129 123 123 129 125 127 132 131 127 122 124 116 111 107 102 102 105 103 107 98 92 102 93 89 92 92 87 82 76 76 74 70
47 89 69 197 256 303 269 156 147 136 144 149 86 102 102 40 133 133 128 121 133 139 132 120 130 125 126 124 116 112 111 107 101 99 113 114 104 95 97 97 99 91 87 86 82 75 74 67 61
118 95 183 188 224 228 193 146 167 146 127 207 150 97 287 167 135 127 126 115 124 124 111 99 128 135 128 123 117 114 112 106 103 95 79 110 96 92 90 97 98 92 87 85 81 76 73 67 61
106 90 106 215 184 233 172 151 146 137 161 123 117 173 173 178 136 112 116 125 131 123 111 108 107 124 131 131 126 120 114 107 102 98 85 78 79 84 79 77 97 99 89 79 71 67 67 63 59
206 72 186 204 157 233 160 139 145 73 122 153 144 157 179 125 122 126 130 134 144 141 134 134 126 115 101 112 126 123 125 124 112 100 92 82 89 90 92 99 99 96 86 75 70 64 56 58 49
67 123 209 207 198 200 193 171 159 131 131 172 108 32 125 134 151 159 160 156 172 175 164 149 143 136 128 90 127 120 114 119 125 127 120 110 116 113 97 76 74 75 69 58 66 58 43 45 38
336 122 360 336 280 227 187 179 184 125 222 210 181 158 151 157 168 168 178 180 171 184 168 165 151 154 147 127 91 111 129 129 126 133 124 124 100 93 89 69 47 51 50 40 45 40 37 28 23
106 26 358 332 336 236 182 132 185 187 213 201 172 164 157 169 179 179 172 183 167 170 168 164 159 169 160 167 153 141 145 143 145 160 144 128 107 91 92 99 83 71 57 46 37 28 10 19 8
85 304 355 322 320 254 151 174 208 230 359 110 129 159 170 171 180 188 175 161 172 173 176 178 168 170 169 168 171 166 177 167 176 162 160 152 151 157 139 141 132 93 53 38 18 9 3 360 354
117 275 336 318 305 271 224 103 196 196 118 118 148 168 180 179 181 170 173 169 179 186 188 172 190 183 175 176 176 183 169 175 171 184 182 168 159 170 180 180 172 120 158 139 86 348 335 329 339
67 335 304 315 293 286 168 312 229 132 148 153 169 172 175 194 180 194 188 185 178 189 190 185 184 186 185 186 182 172 187 170 172 183 185 184 178 188 174 177 205 208 198 204 199 313 331 320 327
99 72 186 246 348 302 125 252 251 154 151 179 183 182 182 198 202 198 189 197 185 177 178 191 186 189 189 182 179 182 177 179 192 188 181 190 187 182 171 184 217 209 197 195 261 299 300 308 318
215 217 212 276 210 293 203 243 258 163 169 194 192 200 199 218 226 208 199 199 188 189 182 185 184 187 196 193 186 178 178 186 192 185 191 195 190 178 177 203 214 198 209 216 197 219 176 304 308
157 191 215 215 212 158 261 264 289 192 177 203 196 201 210 219 227 207 206 201 201 196 191 190 188 191 190 179 163 159 177 204 179 191 188 187 190 191 188 191 207 195 203 218 219 248 313 279 298
145 167 231 242 201 186 225 247 248 208 230 225 215 211 211 224 236 206 200 205 204 206 194 191 184 190 168 166 174 182 198 191 186 170 185 186 189 199 190 199 197 194 208 218 210 150 86 337 332
201 184 231 269 29 151 272 259 256 190 224 214 218 213 219 220 220 230 218 195 199 206 203 196 197 187 189 189 189 173 171 183 182 179 186 196 198 204 198 202 193 202 211 205 191 181 151 189 16
223 193 262 200 56 269 300 284 245 237 216 213 228 228 207 221 218 225 219 207 201 206 202 200 199 192 194 191 149 109 119 79 148 158 182 207 208 220 205 163 186 203 197 213 187 180 178 174 87
211 177 349 84 71 269 321 270 259 220 231 203 230 210 229 223 223 222 211 210 201 218 215 204 196 191 192 178 182 197 200 196 182 179 191 109 109 129 133 151 144 143 140 135 131 121 122 134 111
146 66 142 201 136 27 238 254 254 152 242 240 237 230 233 227 212 211 208 204 205 176 192 193 183 182 183 185 190 190 198 201 181 116 112 93 79 86 96 98 98 89 83 83 90 86 77 63 101
110 50 332 60 104 252 235 197 247 206 193 228 233 229 234 229 217 218 206 176 188 177 187 188 183 197 186 189 190 194 197 185 146 148 128 123 101 80 69 78 85 82 83 88 89 82 79 81 76
116 134 219 196 193 243 343 229 245 252 232 219 224 229 228 225 206 203 196 190 186 183 193 194 194 210 206 196 198 198 198 194 166 161 149 144 138 108 94 94 90 89 92 87 89 82 72 69 78
178 170 173 198 195 215 348 246 250 222 278 251 260 260 272 236 216 207 202 189 186 186 185 194 201 214 201 211 208 202 177 173 162 151 148 133 131 127 126 108 98 101 96 90 85 81 85 85 82
176 213 207 83 79 57 219 289 295 269 260 249 250 249 253 238 224 220 181 179 174 181 192 193 201 209 207 207 212 191 167 147 145 129 121 122 122 125 122 113 115 106 99 99 98 101 104 96 95
182 156 171 190 179 218 265 276 234 276 234 233 243 229 239 213 215 211 181 171 171 190 190 200 200 193 181 177 157 162 154 144 139 141 128 135 124 129 122 116 113 108 108 108 104 102 102 94 70
159 188 189 148 170 188 144 259 214 215 216 236 258 316 270 208 193 175 171 175 183 180 181 193 177 166 158 155 141 141 133 134 132 135 133 130 131 133 126 127 122 120 116 108 102 94 96 93 92
187 187 192 196 210 284 152 244 198 232 263 272 273 265 245 220 183 178 174 172 177 193 184 186 172 161 164 142 135 127 125 127 129 136 124 131 129 129 133 129 117 113 118 122 113 109 102 107 97